Time,TemperatureF,DewpointF,PressureIn,WindDirection,WindDirectionDegrees,WindSpeedMPH,WindSpeedGustMPH,Humidity,HourlyPrecipIn,Conditions,Clouds,dailyrainin,SoftwareType,DateUTC
2013-11-02 00:10:00,77.9,-99.9,29.90,South,177,0.0,0.0,255,0.00,,,0.00,Wunderground v.1.13,2013-11-02 04:10:00,
2013-11-02 00:15:00,77.7,-99.9,29.90,South,177,0.0,0.0,255,0.00,,,0.00,Wunderground v.1.13,2013-11-02 04:15:00,
2013-11-02 00:20:00,77.6,-99.9,29.90,South,177,0.0,0.0,255,0.00,,,0.00,Wunderground v.1.13,2013-11-02 04:20:00,
2013-11-02 00:30:00,77.2,-99.9,29.90,South,177,0.0,0.0,255,0.00,,,0.00,Wunderground v.1.13,2013-11-02 04:30:00,
2013-11-02 00:40:00,76.8,-99.9,29.90,South,177,0.0,0.0,255,0.00,,,0.00,Wunderground v.1.13,2013-11-02 04:40:00,
2013-11-02 00:45:00,76.7,-99.9,29.89,South,177,0.0,0.0,255,0.00,,,0.00,Wunderground v.1.13,2013-11-02 04:45:00,
2013-11-02 00:50:00,76.5,-99.9,29.89,South,177,0.0,0.0,255,0.00,,,0.00,Wunderground v.1.13,2013-11-02 04:50:00,
2013-11-02 00:55:00,76.3,-99.9,29.89,South,177,0.0,0.0,255,0.00,,,0.00,Wunderground v.1.13,2013-11-02 04:55:00,
2013-11-02 01:10:00,75.8,-99.9,29.89,South,177,0.0,0.0,255,0.00,,,0.00,Wunderground v.1.13,2013-11-02 05:10:00,
2013-11-02 01:15:00,75.6,-99.9,29.88,South,177,0.0,0.0,255,0.00,,,0.00,Wunderground v.1.13,2013-11-02 05:15:00,
2013-11-02 01:20:00,75.3,-99.9,29.88,South,177,0.0,0.0,255,0.00,,,0.00,Wunderground v.1.13,2013-11-02 05:20:00,
2013-11-02 01:30:00,74.9,-99.9,29.88,South,177,0.0,0.0,255,0.00,,,0.00,Wunderground v.1.13,2013-11-02 05:30:00,
2013-11-02 01:40:00,74.6,-99.9,29.88,South,177,0.0,0.0,255,0.00,,,0.00,Wunderground v.1.13,2013-11-02 05:40:00,
2013-11-02 01:45:00,74.4,-99.9,29.88,South,177,0.0,0.0,255,0.00,,,0.00,Wunderground v.1.13,2013-11-02 05:45:00,
2013-11-02 01:50:00,74.2,-99.9,29.88,South,177,0.0,0.0,255,0.00,,,0.00,Wunderground v.1.13,2013-11-02 05:50:00,
2013-11-02 02:00:00,73.9,-99.9,29.88,South,177,0.0,1.0,255,0.00,,,0.00,Wunderground v.1.13,2013-11-02 06:00:00,
2013-11-02 02:10:00,73.9,-99.9,29.88,South,177,0.0,0.0,255,0.00,,,0.00,Wunderground v.1.13,2013-11-02 06:10:00,
2013-11-02 02:20:00,73.7,-99.9,29.88,South,177,0.0,0.0,255,0.00,,,0.00,Wunderground v.1.13,2013-11-02 06:20:00,
2013-11-02 02:30:00,73.5,-99.9,29.87,South,177,0.0,0.0,255,0.00,,,0.00,Wunderground v.1.13,2013-11-02 06:30:00,
2013-11-02 02:40:00,73.5,-99.9,29.87,South,177,0.0,0.0,255,0.00,,,0.00,Wunderground v.1.13,2013-11-02 06:40:00,
2013-11-02 02:45:00,73.3,-99.9,29.87,South,177,0.0,0.0,255,0.00,,,0.00,Wunderground v.1.13,2013-11-02 06:45:00,
2013-11-02 02:55:00,73.3,-99.9,29.87,South,177,0.0,0.0,255,0.00,,,0.00,Wunderground v.1.13,2013-11-02 06:55:00,
2013-11-02 03:10:00,73.0,-99.9,29.86,South,177,0.0,0.0,255,0.00,,,0.00,Wunderground v.1.13,2013-11-02 07:10:00,
2013-11-02 03:15:00,73.0,-99.9,29.86,South,177,0.0,0.0,255,0.00,,,0.00,Wunderground v.1.13,2013-11-02 07:15:00,
2013-11-02 03:25:00,72.8,-99.9,29.86,South,177,0.0,0.0,255,0.00,,,0.00,Wunderground v.1.13,2013-11-02 07:25:00,
2013-11-02 03:35:00,72.8,-99.9,29.86,South,177,0.0,0.0,255,0.00,,,0.00,Wunderground v.1.13,2013-11-02 07:35:00,
2013-11-02 03:45:00,73.0,-99.9,29.86,South,177,0.0,0.0,255,0.00,,,0.00,Wunderground v.1.13,2013-11-02 07:45:00,
2013-11-02 03:50:00,73.0,-99.9,29.86,South,177,0.0,0.0,255,0.00,,,0.00,Wunderground v.1.13,2013-11-02 07:50:00,
2013-11-02 04:00:00,72.8,-99.9,29.85,South,177,0.0,0.0,255,0.00,,,0.00,Wunderground v.1.13,2013-11-02 08:00:00,
2013-11-02 04:10:00,72.7,-99.9,29.85,South,177,0.0,0.0,255,0.00,,,0.00,Wunderground v.1.13,2013-11-02 08:10:00,
2013-11-02 04:20:00,72.8,-99.9,29.85,South,177,0.0,0.0,255,0.00,,,0.00,Wunderground v.1.13,2013-11-02 08:20:00,
2013-11-02 04:30:00,72.7,-99.9,29.84,South,177,0.0,0.0,255,0.00,,,0.00,Wunderground v.1.13,2013-11-02 08:30:00,
2013-11-02 04:40:00,72.7,-99.9,29.84,South,177,0.0,0.0,255,0.00,,,0.00,Wunderground v.1.13,2013-11-02 08:40:00,
2013-11-02 04:50:00,72.5,-99.9,29.84,South,177,0.0,0.0,255,0.00,,,0.00,Wunderground v.1.13,2013-11-02 08:50:00,
2013-11-02 05:00:00,72.3,-99.9,29.84,South,177,0.0,0.0,255,0.00,,,0.00,Wunderground v.1.13,2013-11-02 09:00:00,
2013-11-02 05:10:00,72.3,-99.9,29.84,South,177,0.0,0.0,255,0.00,,,0.00,Wunderground v.1.13,2013-11-02 09:10:00,
2013-11-02 05:20:00,72.3,-99.9,29.84,South,177,0.0,0.0,255,0.00,,,0.00,Wunderground v.1.13,2013-11-02 09:20:00,
2013-11-02 05:30:00,72.1,-99.9,29.84,South,177,0.0,0.0,255,0.00,,,0.00,Wunderground v.1.13,2013-11-02 09:30:00,
2013-11-02 05:35:00,72.0,-99.9,29.84,South,177,0.0,0.0,255,0.00,,,0.00,Wunderground v.1.13,2013-11-02 09:35:00,
2013-11-02 05:45:00,71.8,-99.9,29.84,South,177,0.0,0.0,255,0.00,,,0.00,Wunderground v.1.13,2013-11-02 09:45:00,
2013-11-02 05:50:00,71.6,-99.9,29.84,South,177,0.0,0.0,255,0.00,,,0.00,Wunderground v.1.13,2013-11-02 09:50:00,
2013-11-02 06:00:00,71.3,-99.9,29.84,South,177,0.0,0.0,255,0.00,,,0.00,Wunderground v.1.13,2013-11-02 10:00:00,
2013-11-02 06:10:00,71.1,-99.9,29.84,South,177,0.0,0.0,255,0.00,,,0.00,Wunderground v.1.13,2013-11-02 10:10:00,
2013-11-02 06:15:00,70.9,-99.9,29.84,South,177,0.0,0.0,255,0.00,,,0.00,Wunderground v.1.13,2013-11-02 10:15:00,
2013-11-02 06:25:00,70.8,-99.9,29.84,South,177,0.0,0.0,255,0.00,,,0.00,Wunderground v.1.13,2013-11-02 10:25:00,
2013-11-02 06:30:00,70.8,-99.9,29.84,South,177,0.0,0.0,255,0.00,,,0.00,Wunderground v.1.13,2013-11-02 10:30:00,
2013-11-02 06:35:00,70.8,-99.9,29.84,South,177,0.0,0.0,255,0.00,,,0.00,Wunderground v.1.13,2013-11-02 10:35:00,
2013-11-02 06:40:00,70.6,-99.9,29.84,South,177,0.0,1.0,255,0.00,,,0.00,Wunderground v.1.13,2013-11-02 10:40:00,
2013-11-02 06:50:00,70.4,-99.9,29.85,South,177,0.0,0.0,255,0.00,,,0.00,Wunderground v.1.13,2013-11-02 10:50:00,
2013-11-02 07:00:00,70.4,-99.9,29.85,South,177,0.0,0.0,255,0.00,,,0.00,Wunderground v.1.13,2013-11-02 11:00:00,
2013-11-02 07:10:00,70.4,-99.9,29.85,South,177,0.0,0.0,255,0.00,,,0.00,Wunderground v.1.13,2013-11-02 11:10:00,
2013-11-02 07:20:00,70.6,-99.9,29.86,South,177,0.0,0.0,255,0.00,,,0.00,Wunderground v.1.13,2013-11-02 11:20:00,
2013-11-02 07:25:00,70.6,-99.9,29.86,South,177,0.0,0.0,255,0.00,,,0.00,Wunderground v.1.13,2013-11-02 11:25:00,
2013-11-02 07:35:00,70.4,-99.9,29.85,South,177,0.0,0.0,255,0.00,,,0.00,Wunderground v.1.13,2013-11-02 11:35:00,
2013-11-02 07:40:00,70.4,-99.9,29.85,South,177,0.0,0.0,255,0.00,,,0.00,Wunderground v.1.13,2013-11-02 11:40:00,
2013-11-02 07:50:00,70.3,-99.9,29.86,South,177,0.0,0.0,255,0.00,,,0.00,Wunderground v.1.13,2013-11-02 11:50:00,
2013-11-02 08:00:00,70.3,-99.9,29.86,South,177,0.0,0.0,255,0.00,,,0.00,Wunderground v.1.13,2013-11-02 12:00:00,
2013-11-02 08:10:00,70.4,-99.9,29.86,South,184,0.0,0.0,255,0.00,,,0.00,Wunderground v.1.13,2013-11-02 12:10:00,
2013-11-02 08:15:00,70.4,-99.9,29.86,South,184,0.0,0.0,255,0.00,,,0.00,Wunderground v.1.13,2013-11-02 12:15:00,
2013-11-02 08:25:00,70.8,-99.9,29.86,South,184,0.0,0.0,255,0.00,,,0.00,Wunderground v.1.13,2013-11-02 12:25:00,
2013-11-02 08:35:00,73.5,-99.9,29.86,South,184,0.0,0.0,255,0.00,,,0.00,Wunderground v.1.13,2013-11-02 12:35:00,
2013-11-02 08:45:00,74.7,-99.9,29.87,South,184,1.0,2.0,255,0.00,,,0.00,Wunderground v.1.13,2013-11-02 12:45:00,
2013-11-02 08:50:00,75.1,-99.9,29.87,South,184,1.0,5.0,255,0.00,,,0.00,Wunderground v.1.13,2013-11-02 12:50:00,
2013-11-02 08:55:00,75.6,-99.9,29.87,South,184,3.0,4.0,255,0.00,,,0.00,Wunderground v.1.13,2013-11-02 12:55:00,
2013-11-02 09:10:00,76.0,-99.9,29.87,South,180,2.0,4.0,-32768,0.00,,,0.00,Wunderground v.1.13,2013-11-02 13:10:00,
2013-11-02 09:15:00,77.6,-99.9,29.87,South,184,4.0,4.0,255,0.00,,,0.00,Wunderground v.1.13,2013-11-02 13:15:00,
2013-11-02 09:20:00,78.1,-99.9,29.87,South,188,3.0,3.0,255,0.00,,,0.00,Wunderground v.1.13,2013-11-02 13:20:00,
2013-11-02 09:30:00,78.8,-99.9,29.88,SSW,200,4.0,5.0,255,0.00,,,0.00,Wunderground v.1.13,2013-11-02 13:30:00,
2013-11-02 09:40:00,79.6,-99.9,29.88,SSW,204,3.0,3.0,255,0.00,,,0.00,Wunderground v.1.13,2013-11-02 13:40:00,
2013-11-02 09:50:00,80.3,-99.9,29.88,SSW,202,4.0,4.0,255,0.00,,,0.00,Wunderground v.1.13,2013-11-02 13:50:00,
2013-11-02 10:00:00,80.7,-99.9,29.88,SW,230,4.0,8.0,255,0.00,,,0.00,Wunderground v.1.13,2013-11-02 14:00:00,
2013-11-02 10:05:00,81.1,-99.9,29.88,SW,225,6.0,9.0,-32768,0.00,,,0.00,Wunderground v.1.13,2013-11-02 14:05:00,
2013-11-02 10:15:00,81.2,-99.9,29.88,SW,225,6.0,8.0,-32768,0.00,,,0.00,Wunderground v.1.13,2013-11-02 14:15:00,
2013-11-02 10:25:00,81.8,-99.9,29.88,SW,216,6.0,6.0,255,0.00,,,0.00,Wunderground v.1.13,2013-11-02 14:25:00,
2013-11-02 10:30:00,82.2,-99.9,29.88,SW,236,6.0,6.0,255,0.00,,,0.00,Wunderground v.1.13,2013-11-02 14:30:00,
2013-11-02 10:40:00,83.0,-99.9,29.88,SSW,205,5.0,6.0,255,0.00,,,0.00,Wunderground v.1.13,2013-11-02 14:40:00,
2013-11-02 10:45:00,82.8,-99.9,29.87,South,176,6.0,6.0,255,0.00,,,0.00,Wunderground v.1.13,2013-11-02 14:45:00,
2013-11-02 10:55:00,84.1,-99.9,29.87,South,180,5.0,5.0,255,0.00,,,0.00,Wunderground v.1.13,2013-11-02 14:55:00,
2013-11-02 11:00:00,84.3,-99.9,29.87,SSW,193,5.0,5.0,255,0.00,,,0.00,Wunderground v.1.13,2013-11-02 15:00:00,
2013-11-02 11:10:00,84.3,-99.9,29.87,SSW,205,6.0,8.0,255,0.00,,,0.00,Wunderground v.1.13,2013-11-02 15:10:00,
2013-11-02 11:15:00,84.3,-99.9,29.87,SW,222,6.0,6.0,255,0.00,,,0.00,Wunderground v.1.13,2013-11-02 15:15:00,
2013-11-02 11:20:00,85.3,-99.9,29.87,South,185,6.0,11.0,255,0.00,,,0.00,Wunderground v.1.13,2013-11-02 15:20:00,
2013-11-02 11:25:00,85.1,-99.9,29.87,SSW,213,5.0,6.0,255,0.00,,,0.00,Wunderground v.1.13,2013-11-02 15:25:00,
2013-11-02 11:35:00,85.3,-99.9,29.87,SW,223,6.0,6.0,255,0.00,,,0.00,Wunderground v.1.13,2013-11-02 15:35:00,
2013-11-02 11:40:00,85.3,-99.9,29.87,SW,226,6.0,11.0,255,0.00,,,0.00,Wunderground v.1.13,2013-11-02 15:40:00,
2013-11-02 11:50:00,85.5,-99.9,29.86,SSW,200,7.0,7.0,255,0.00,,,0.00,Wunderground v.1.13,2013-11-02 15:50:00,
2013-11-02 12:00:00,86.3,-99.9,29.86,SW,225,7.0,7.0,255,0.00,,,0.00,Wunderground v.1.13,2013-11-02 16:00:00,
2013-11-02 12:10:00,87.4,-99.9,29.86,SW,215,6.0,6.0,255,0.00,,,0.00,Wunderground v.1.13,2013-11-02 16:10:00,
2013-11-02 12:15:00,87.4,-99.9,29.86,West,267,7.0,7.0,255,0.00,,,0.00,Wunderground v.1.13,2013-11-02 16:15:00,
2013-11-02 12:25:00,87.6,-99.9,29.86,SSW,202,7.0,7.0,255,0.00,,,0.00,Wunderground v.1.13,2013-11-02 16:25:00,
2013-11-02 12:30:00,88.0,-99.9,29.84,West,280,7.0,7.0,255,0.00,,,0.00,Wunderground v.1.13,2013-11-02 16:30:00,
2013-11-02 12:40:00,87.4,-99.9,29.84,SW,219,7.0,7.0,255,0.00,,,0.00,Wunderground v.1.13,2013-11-02 16:40:00,
2013-11-02 12:45:00,87.8,-99.9,29.84,SSW,207,7.0,7.0,255,0.00,,,0.00,Wunderground v.1.13,2013-11-02 16:45:00,
2013-11-02 12:55:00,86.5,-99.9,29.84,WSW,248,7.0,7.0,255,0.00,,,0.00,Wunderground v.1.13,2013-11-02 16:55:00,
2013-11-02 13:00:00,86.3,-99.9,29.84,WSW,243,7.0,8.0,255,0.00,,,0.00,Wunderground v.1.13,2013-11-02 17:00:00,
2013-11-02 13:10:00,87.2,-99.9,29.84,SW,217,6.0,6.0,255,0.00,,,0.00,Wunderground v.1.13,2013-11-02 17:10:00,
2013-11-02 13:15:00,87.6,-99.9,29.83,WSW,246,6.0,6.0,255,0.00,,,0.00,Wunderground v.1.13,2013-11-02 17:15:00,
2013-11-02 13:20:00,88.6,-99.9,29.83,WSW,238,5.0,5.0,255,0.00,,,0.00,Wunderground v.1.13,2013-11-02 17:20:00,
2013-11-02 13:30:00,88.8,-99.9,29.82,West,259,6.0,6.0,255,0.00,,,0.00,Wunderground v.1.13,2013-11-02 17:30:00,
2013-11-02 13:35:00,88.8,-99.9,29.82,West,263,6.0,7.0,255,0.00,,,0.00,Wunderground v.1.13,2013-11-02 17:35:00,
2013-11-02 13:40:00,89.0,-99.9,29.82,West,270,6.0,6.0,255,0.00,,,0.00,Wunderground v.1.13,2013-11-02 17:40:00,
2013-11-02 13:45:00,89.3,-99.9,29.81,SSW,210,6.0,7.0,255,0.00,,,0.00,Wunderground v.1.13,2013-11-02 17:45:00,
2013-11-02 14:00:00,88.8,-99.9,29.80,SW,227,5.0,5.0,255,0.00,,,0.00,Wunderground v.1.13,2013-11-02 18:00:00,
2013-11-02 14:10:00,89.3,-99.9,29.80,SSW,204,5.0,5.0,255,0.00,,,0.00,Wunderground v.1.13,2013-11-02 18:10:00,
2013-11-02 14:15:00,89.0,-99.9,29.80,SW,217,5.0,5.0,255,0.00,,,0.00,Wunderground v.1.13,2013-11-02 18:15:00,
2013-11-02 14:25:00,89.7,-99.9,29.80,WSW,247,5.0,5.0,255,0.00,,,0.00,Wunderground v.1.13,2013-11-02 18:25:00,
2013-11-02 14:35:00,88.6,-99.9,29.79,SSW,210,5.0,7.0,255,0.00,,,0.00,Wunderground v.1.13,2013-11-02 18:35:00,
2013-11-02 14:40:00,88.4,-99.9,29.79,SW,227,5.0,5.0,255,0.00,,,0.00,Wunderground v.1.13,2013-11-02 18:40:00,
2013-11-02 14:50:00,88.6,-99.9,29.79,West,268,5.0,5.0,255,0.00,,,0.00,Wunderground v.1.13,2013-11-02 18:50:00,
2013-11-02 15:00:00,88.0,-99.9,29.79,West,275,6.0,7.0,255,0.00,,,0.00,Wunderground v.1.13,2013-11-02 19:00:00,
2013-11-02 15:10:00,88.4,-99.9,29.79,WSW,238,4.0,4.0,255,0.00,,,0.00,Wunderground v.1.13,2013-11-02 19:10:00,
2013-11-02 15:15:00,88.2,-99.9,29.78,SW,235,4.0,4.0,255,0.00,,,0.00,Wunderground v.1.13,2013-11-02 19:15:00,
2013-11-02 15:20:00,88.4,-99.9,29.78,SW,225,4.0,5.0,255,0.00,,,0.00,Wunderground v.1.13,2013-11-02 19:20:00,
2013-11-02 15:25:00,88.4,-99.9,29.78,SW,225,3.0,3.0,255,0.00,,,0.00,Wunderground v.1.13,2013-11-02 19:25:00,
2013-11-02 15:35:00,89.0,-99.9,29.77,WSW,247,2.0,4.0,255,0.00,,,0.00,Wunderground v.1.13,2013-11-02 19:35:00,
2013-11-02 15:45:00,88.6,-99.9,29.77,WSW,255,4.0,4.0,255,0.00,,,0.00,Wunderground v.1.13,2013-11-02 19:45:00,
2013-11-02 15:55:00,88.6,-99.9,29.77,NW,306,3.0,4.0,255,0.00,,,0.00,Wunderground v.1.13,2013-11-02 19:55:00,
2013-11-02 16:10:00,88.4,-99.9,29.77,West,259,3.0,6.0,255,0.00,,,0.00,Wunderground v.1.13,2013-11-02 20:10:00,
2013-11-02 16:15:00,88.8,-99.9,29.77,West,262,3.0,5.0,255,0.00,,,0.00,Wunderground v.1.13,2013-11-02 20:15:00,
2013-11-02 16:25:00,88.0,-99.9,29.77,West,267,3.0,3.0,255,0.00,,,0.00,Wunderground v.1.13,2013-11-02 20:25:00,
2013-11-02 16:30:00,87.6,-99.9,29.77,West,267,1.0,3.0,255,0.00,,,0.00,Wunderground v.1.13,2013-11-02 20:30:00,
2013-11-02 16:35:00,87.2,-99.9,29.77,WNW,284,1.0,3.0,255,0.00,,,0.00,Wunderground v.1.13,2013-11-02 20:35:00,
2013-11-02 16:45:00,87.2,-99.9,29.76,West,271,3.0,3.0,255,0.00,,,0.00,Wunderground v.1.13,2013-11-02 20:45:00,
2013-11-02 16:50:00,87.4,-99.9,29.76,SW,216,3.0,5.0,255,0.00,,,0.00,Wunderground v.1.13,2013-11-02 20:50:00,
2013-11-02 17:00:00,87.2,-99.9,29.76,West,261,3.0,3.0,255,0.00,,,0.00,Wunderground v.1.13,2013-11-02 21:00:00,
2013-11-02 17:10:00,87.0,-99.9,29.76,WSW,254,3.0,3.0,255,0.00,,,0.00,Wunderground v.1.13,2013-11-02 21:10:00,
2013-11-02 17:20:00,86.5,-99.9,29.77,WSW,254,4.0,6.0,255,0.00,,,0.00,Wunderground v.1.13,2013-11-02 21:20:00,
2013-11-02 17:25:00,86.7,-99.9,29.77,West,270,3.0,4.0,255,0.00,,,0.00,Wunderground v.1.13,2013-11-02 21:25:00,
2013-11-02 17:30:00,86.5,-99.9,29.76,West,270,3.0,3.0,255,0.00,,,0.00,Wunderground v.1.13,2013-11-02 21:30:00,
2013-11-02 17:35:00,86.3,-99.9,29.76,West,270,2.0,2.0,255,0.00,,,0.00,Wunderground v.1.13,2013-11-02 21:35:00,
2013-11-02 17:45:00,85.9,-99.9,29.77,West,273,4.0,4.0,255,0.00,,,0.00,Wunderground v.1.13,2013-11-02 21:45:00,
2013-11-02 17:55:00,85.7,-99.9,29.77,West,273,3.0,3.0,255,0.00,,,0.00,Wunderground v.1.13,2013-11-02 21:55:00,
2013-11-02 18:10:00,85.7,-99.9,29.77,NW,309,4.0,4.0,255,0.00,,,0.00,Wunderground v.1.13,2013-11-02 22:10:00,
2013-11-02 18:20:00,84.5,-99.9,29.78,NW,313,6.0,7.0,255,0.00,,,0.00,Wunderground v.1.13,2013-11-02 22:20:00,
2013-11-02 18:25:00,83.8,-99.9,29.78,NW,304,7.0,7.0,255,0.00,,,0.00,Wunderground v.1.13,2013-11-02 22:25:00,
2013-11-02 18:35:00,82.6,-99.9,29.79,NW,323,6.0,7.0,255,0.00,,,0.00,Wunderground v.1.13,2013-11-02 22:35:00,
2013-11-02 18:45:00,81.6,-99.9,29.80,WNW,294,5.0,5.0,255,0.00,,,0.00,Wunderground v.1.13,2013-11-02 22:45:00,
2013-11-02 18:55:00,81.1,-99.9,29.80,WNW,298,4.0,4.0,255,0.00,,,0.00,Wunderground v.1.13,2013-11-02 22:55:00,
2013-11-02 19:00:00,80.9,-99.9,29.81,NNW,329,4.0,10.0,255,0.00,,,0.00,Wunderground v.1.13,2013-11-02 23:00:00,
2013-11-02 19:10:00,80.7,-99.9,29.81,NW,318,5.0,5.0,255,0.00,,,0.00,Wunderground v.1.13,2013-11-02 23:10:00,
2013-11-02 19:25:00,80.1,-99.9,29.81,WNW,298,4.0,8.0,255,0.00,,,0.00,Wunderground v.1.13,2013-11-02 23:25:00,
2013-11-02 19:30:00,80.1,-99.9,29.82,WNW,300,4.0,4.0,255,0.00,,,0.00,Wunderground v.1.13,2013-11-02 23:30:00,
2013-11-02 19:40:00,79.8,-99.9,29.82,WNW,300,3.0,3.0,255,0.00,,,0.00,Wunderground v.1.13,2013-11-02 23:40:00,
2013-11-02 19:50:00,79.6,-99.9,29.83,WNW,300,3.0,3.0,255,0.00,,,0.00,Wunderground v.1.13,2013-11-02 23:50:00,
2013-11-02 19:55:00,79.4,-99.9,29.83,WNW,300,2.0,3.0,255,0.00,,,0.00,Wunderground v.1.13,2013-11-02 23:55:00,
2013-11-02 20:00:00,79.2,-99.9,29.84,WNW,300,1.0,1.0,255,0.00,,,0.00,Wunderground v.1.13,2013-11-03 00:00:00,
2013-11-02 20:10:00,79.0,-99.9,29.84,WNW,300,2.0,2.0,255,0.00,,,0.00,Wunderground v.1.13,2013-11-03 00:10:00,
2013-11-02 20:15:00,79.0,-99.9,29.84,WNW,300,2.0,4.0,255,0.00,,,0.00,Wunderground v.1.13,2013-11-03 00:15:00,
2013-11-02 20:25:00,78.8,-99.9,29.84,WNW,300,3.0,3.0,255,0.00,,,0.00,Wunderground v.1.13,2013-11-03 00:25:00,
2013-11-02 20:35:00,78.6,-99.9,29.85,WNW,300,1.0,1.0,255,0.00,,,0.00,Wunderground v.1.13,2013-11-03 00:35:00,
2013-11-02 20:45:00,78.6,-99.9,29.85,WNW,300,0.0,0.0,255,0.00,,,0.00,Wunderground v.1.13,2013-11-03 00:45:00,
2013-11-02 20:50:00,78.5,-99.9,29.85,WNW,300,0.0,0.0,255,0.00,,,0.00,Wunderground v.1.13,2013-11-03 00:50:00,
2013-11-02 21:00:00,78.5,-99.9,29.86,WNW,300,2.0,2.0,255,0.00,,,0.00,Wunderground v.1.13,2013-11-03 01:00:00,
2013-11-02 21:10:00,78.3,-99.9,29.86,WNW,300,1.0,3.0,255,0.00,,,0.00,Wunderground v.1.13,2013-11-03 01:10:00,
2013-11-02 21:20:00,78.3,-99.9,29.86,WNW,300,3.0,4.0,255,0.00,,,0.00,Wunderground v.1.13,2013-11-03 01:20:00,
2013-11-02 21:35:00,78.1,-99.9,29.86,WNW,300,3.0,3.0,255,0.00,,,0.00,Wunderground v.1.13,2013-11-03 01:35:00,
2013-11-02 21:45:00,78.1,-99.9,29.87,WNW,301,3.0,5.0,255,0.00,,,0.00,Wunderground v.1.13,2013-11-03 01:45:00,
2013-11-02 21:50:00,77.9,-99.9,29.87,WNW,302,4.0,5.0,255,0.00,,,0.00,Wunderground v.1.13,2013-11-03 01:50:00,
2013-11-02 22:00:00,77.7,-99.9,29.87,WNW,302,4.0,4.0,255,0.00,,,0.00,Wunderground v.1.13,2013-11-03 02:00:00,
2013-11-02 22:10:00,77.6,-99.9,29.87,WNW,302,3.0,4.0,255,0.00,,,0.00,Wunderground v.1.13,2013-11-03 02:10:00,
2013-11-02 22:15:00,77.6,-99.9,29.87,WNW,302,3.0,3.0,255,0.00,,,0.00,Wunderground v.1.13,2013-11-03 02:15:00,
2013-11-02 22:20:00,77.4,-99.9,29.87,WNW,302,3.0,3.0,255,0.00,,,0.00,Wunderground v.1.13,2013-11-03 02:20:00,
2013-11-02 22:30:00,77.2,-99.9,29.87,WNW,302,3.0,6.0,255,0.00,,,0.00,Wunderground v.1.13,2013-11-03 02:30:00,
2013-11-02 22:40:00,77.0,-99.9,29.87,WNW,302,3.0,6.0,255,0.00,,,0.00,Wunderground v.1.13,2013-11-03 02:40:00,
2013-11-02 22:50:00,77.0,-99.9,29.87,NW,304,4.0,4.0,255,0.00,,,0.00,Wunderground v.1.13,2013-11-03 02:50:00,
2013-11-02 23:00:00,76.7,-99.9,29.87,NW,326,4.0,4.0,255,0.00,,,0.00,Wunderground v.1.13,2013-11-03 03:00:00,
2013-11-02 23:10:00,76.5,-99.9,29.87,North,5,4.0,5.0,255,0.00,,,0.00,Wunderground v.1.13,2013-11-03 03:10:00,
2013-11-02 23:20:00,75.6,-99.9,29.87,NNW,332,5.0,7.0,255,0.00,,,0.00,Wunderground v.1.13,2013-11-03 03:20:00,
2013-11-02 23:25:00,75.3,-99.9,29.87,NNW,336,5.0,6.0,255,0.00,,,0.00,Wunderground v.1.13,2013-11-03 03:25:00,
2013-11-02 23:35:00,74.6,-99.9,29.87,NNW,331,6.0,6.0,255,0.00,,,0.00,Wunderground v.1.13,2013-11-03 03:35:00,
2013-11-02 23:45:00,74.0,-99.9,29.87,NNW,332,6.0,6.0,255,0.00,,,0.00,Wunderground v.1.13,2013-11-03 03:45:00,
2013-11-02 23:50:00,73.9,-99.9,29.87,NW,326,5.0,7.0,255,0.00,,,0.00,Wunderground v.1.13,2013-11-03 03:50:00,